[[{"header":{"parameterUnit":"m.s-1","parameterCategory":2,"la1":30.2991,"la2":30.254,"lo1":-89.0895,"lo2":-89.0444,"dy":0.0017,"dx":0.0017,"nx":28,"ny":28,"refTime":"2024-05-20T21:00:00:Z","depth":"0","parameterNumber":2,"parameterNumberName":"U-component_of_CURRENTS"},"data":[0,0,0,0,0,0,0,0,0,0,0,0,0,0,0,0,0,0,0,0,0,0,0,0,0,0,0,0,0,0,0,0,0,0,0,0,0,0,0,0,0,0,0,0,0,0,0,0,0,0,0,0,0,0,0,0,0,0,0.297,0.297,0,0.3002,0.3002,0.3003,0.2993,0.2993,0.2993,0.2992,0.2969,0.2969,0.2969,0,0,0,0,0,0,0,0,0,0,0,0,0,0.2904,0.2905,0.2969,0.297,0.2971,0.3002,0.3002,0.3003,0.2993,0.2993,0.2992,0.2992,0.297,0.2969,0.2969,0,0,0,0,0,0,0,0,0,0,0,0,0,0.2932,0.2905,0.2969,0.2972,0.2973,0.3002,0.3002,0.3003,0.2994,0.2993,0.2992,0.2992,0.297,0.2969,0.2969,0.298,0,0,0.2968,0.2968,0,0,0,0,0,0,0,0,0.293,0.2934,0.2971,0.2972,0.2973,0.2995,0.2971,0.2993,0.2994,0.2983,0.2992,0.2991,0.2975,0.2974,0.2979,0.2979,0.2978,0.2968,0.2968,0.2968,0.2968,0,0,0,0,0,0,0,0.2928,0.2932,0.298,0.2972,0.2973,0.2973,0.2976,0.2975,0.2979,0.2984,0.2984,0.2992,0.2975,0.2979,0.2978,0.2978,0.2968,0.2968,0.2968,0.2967,0.3015,0.3016,0,0,0,0,0,0,0.293,0.2931,0.2979,0.2981,0.2952,0.2975,0.2978,0.2987,0.298,0.298,0.2992,0.2991,0.298,0.2979,0.2977,0.3032,0.2968,0.2967,0.2967,0.3014,0.3015,0.3017,0,0,0,0,0,0,0.2929,0.2934,0.2977,0.2958,0.2964,0.2977,0.2987,0.2988,0.3,0.2988,0.2986,0.3005,0.298,0.2978,0.2989,0.3029,0.2967,0.2967,0.3012,0.3014,0.3016,0.3113,0,0,0,0,0,0,0.2927,0.2933,0.2941,0.2959,0.2966,0.3007,0.2987,0.2989,0.3007,0.3006,0.2998,0.2995,0.2979,0.299,0.2989,0.3027,0.2967,0.301,0.3013,0.3015,0.3108,0.3119,0.3127,0,0,0,0,0,0.2924,0.2935,0.2941,0.2948,0.2976,0.3009,0.3013,0.3017,0.3008,0.3023,0.3016,0.2995,0.3006,0.2991,0.2989,0.3029,0.3009,0.3012,0.3015,0.3104,0.3117,0.3127,0,0,0,0,0,0,0.2905,0.2936,0.2943,0.2962,0.2991,0.3008,0.3021,0.3026,0.3034,0.303,0.3012,0.3009,0.3037,0.3016,0.2999,0.305,0.3005,0.3008,0.3073,0.3085,0.3094,0.3089,0.2967,0,0,0,0,0,0.2908,0.2926,0.2958,0.2974,0.2991,0.3009,0.3023,0.3031,0.3041,0.3044,0.304,0.3037,0.305,0.3052,0.3054,0.3079,0.3111,0.3103,0.3112,0.312,0.3115,0.3221,0.3241,0.3028,0.3028,0.3027,0,0,0.2905,0.2924,0.2935,0.2972,0.2991,0.3021,0.3015,0.3044,0.3066,0.304,0.3064,0.3071,0.3064,0.3096,0.3107,0.3083,0.3204,0.3125,0.3132,0.3121,0.3227,0.3248,0.3267,0.303,0.3029,0.3029,0,0,0.291,0.2929,0.2949,0.2978,0.3017,0.3034,0.3047,0.3078,0.309,0.3121,0.3113,0.3142,0.315,0.3163,0.3167,0.3228,0.3253,0.3233,0.3276,0.3381,0.34,0.3417,0.3514,0.3538,0.3236,0.3236,0.3236,0,0.2906,0.2936,0.296,0.2991,0.302,0.3042,0.3077,0.3095,0.3125,0.3158,0.3137,0.3203,0.3183,0.3248,0.3256,0.3251,0.3316,0.3237,0.3397,0.3414,0.343,0.3524,0.355,0.3241,0.324,0.324,0.3239,0,0.2932,0.2959,0.2975,0.3022,0.3056,0.3091,0.3128,0.3165,0.3186,0.3216,0.3291,0.3289,0.3335,0.3336,0.3303,0.3409,0.3423,0.3404,0.3374,0.3458,0.3551,0.3577,0.3248,0.3246,0.3245,0.3244,0,0,0.2914,0.2982,0.2984,0.3019,0.308,0.311,0.3165,0.3237,0.3291,0.333,0.3418,0.3429,0.3455,0.3459,0.3454,0.3512,0.3667,0.35,0.3503,0.3605,0.392,0.3872,0.3896,0.3697,0.3702,0.3705,0.3952,0,0.2929,0.298,0.3018,0.3077,0.3114,0.3172,0.3222,0.329,0.335,0.3438,0.3482,0.3548,0.3497,0.3534,0.3595,0.3646,0.3735,0.3602,0.3812,0.3817,0.3774,0.3923,0.3757,0.3958,0.3976,0.3981,0.3984,0,0.2941,0.2976,0.303,0.3119,0.3143,0.3178,0.3293,0.3348,0.3475,0.3534,0.3635,0.3675,0.3771,0.3711,0.3887,0.3816,0.3874,0.3908,0.3919,0.3851,0.3817,0.387,0.4003,0.3872,0.4023,0.4019,0.4017,0,0.2907,0.2986,0.3029,0.3058,0.3156,0.32,0.3256,0.3373,0.3438,0.3604,0.3688,0.3821,0.3899,0.4001,0.4059,0.4004,0.4257,0.42,0.4225,0.4223,0.4104,0.4083,0.4135,0.4348,0.4348,0.4347,0.4346,0,0.2908,0.2941,0.3012,0.3034,0.3098,0.3179,0.3266,0.3357,0.3494,0.3595,0.3729,0.3841,0.3975,0.412,0.4159,0.4288,0.4364,0.4269,0.4298,0.4133,0.4113,0.4006,0.3953,0.4356,0.4354,0.4352,0.4351,0,0.287,0.2911,0.2968,0.3058,0.3078,0.3126,0.3238,0.3316,0.3458,0.3605,0.3665,0.3898,0.4099,0.423,0.4415,0.4418,0.4413,0.4554,0.4346,0.4343,0.419,0.4149,0.4108,0.3988,0.4634,0.4635,0.4635,0,0.2859,0.2879,0.2958,0.298,0.3015,0.3085,0.3137,0.3275,0.3359,0.3624,0.3697,0.3953,0.4109,0.4398,0.4478,0.4621,0.4455,0.4528,0.4363,0.4194,0.4172,0.3988,0.3876,0.4269,0.4267,0.4265,0.4263,0,0.2843,0.2865,0.2907,0.2939,0.2982,0.3041,0.3119,0.3168,0.3356,0.3492,0.3691,0.384,0.4148,0.4243,0.4447,0.4492,0.4292,0.4486,0.4378,0.3953,0.3693,0.3586,0.4094,0.4244,0.4246,0.4247,0.4248,0.4249,0.2819,0.2834,0.2868,0.2903,0.2942,0.2974,0.2982,0.3088,0.3195,0.3366,0.3584,0.3759,0.3989,0.4255,0.4267,0.4198,0.4187,0.4075,0.4068,0.3919,0.3693,0.4154,0.4279,0.4281,0.4282,0.4284,0.4285,0,0.2777,0.2792,0.2826,0.2841,0.2846,0.2895,0.2952,0.2947,0.3013,0.3226,0.3381,0.3613,0.3726,0.3856,0.393,0.3808,0.36,0.3701,0.3395,0.3328,0.3816,0.3683,0.36,0.36,0.36,0.36,0.36,0.36,0.2745,0.2751,0.2768,0.2735,0.274,0.2695,0.2701,0.2717,0.2808,0.294,0.3065,0.3253,0.352,0.3667,0.357,0.3483,0.3199,0.3069,0.3063,0.3393,0.3425,0.3455,0.3314,0.3156,0.3155,0.2393,0.2388,0.2384]},{"header":{"parameterUnit":"m.s-1","parameterCategory":2,"la1":30.2991,"la2":30.254,"lo1":-89.0895,"lo2":-89.0444,"dy":0.0017,"dx":0.0017,"nx":28,"ny":28,"refTime":"2024-05-20T21:00:00:Z","depth":"0","parameterNumber":3,"parameterNumberName":"V-component_of_CURRENTS"},"data":[0,0,0,0,0,0,0,0,0,0,0,0,0,0,0,0,0,0,0,0,0,0,0,0,0,0,0,0,0,0,0,0,0,0,0,0,0,0,0,0,0,0,0,0,0,0,0,0,0,0,0,0,0,0,0,0,0,0,0.0162,0.0162,0,0.0123,0.0122,0.0122,0.0091,0.0091,0.0091,0.009,0.0025,0.0023,0.0022,0,0,0,0,0,0,0,0,0,0,0,0,0,0.0183,0.0183,0.0162,0.0162,0.0161,0.0123,0.0122,0.0121,0.0091,0.0091,0.0091,0.009,0.0026,0.0024,0.0022,0,0,0,0,0,0,0,0,0,0,0,0,0,0.016,0.0183,0.0162,0.0143,0.0141,0.0123,0.0122,0.0121,0.0091,0.0091,0.0091,0.009,0.0026,0.0024,0.0021,0.0009,0,0,0.0014,0.0013,0,0,0,0,0,0,0,0,0.0161,0.0159,0.0146,0.0144,0.0142,0.0113,0.0106,0.0083,0.0091,0.0108,0.009,0.009,0.0054,0.0049,0.0039,0.0006,0.0003,0.0014,0.0012,0.0011,0.001,0,0,0,0,0,0,0,0.0163,0.016,0.0144,0.0146,0.0144,0.0127,0.0124,0.0101,0.008,0.0106,0.0104,0.0103,0.0052,0.0042,0.0037,0.0002,0.0014,0.0011,0.001,0.0009,-0.0083,-0.0084,0,0,0,0,0,0,0.0174,0.0162,0.0146,0.0143,0.0154,0.0127,0.0123,0.0121,0.0081,0.0075,0.0104,0.0102,0.0046,0.004,0.0035,0.0013,0.0011,0.0009,0.0007,-0.0082,-0.0083,-0.0084,0,0,0,0,0,0,0.0174,0.0173,0.0147,0.0154,0.0149,0.0128,0.0125,0.012,0.0112,0.0079,0.0073,0.0101,0.0046,0.0038,0.0003,0.0011,0.0008,0.0005,-0.0081,-0.0083,-0.0084,-0.0027,0,0,0,0,0,0,0.0175,0.0173,0.0175,0.0154,0.015,0.0142,0.0125,0.012,0.0113,0.011,0.0075,0.0068,0.0045,0.0007,0.0001,0.0007,0.0003,-0.008,-0.0082,-0.0083,-0.0028,-0.0027,-0.0026,0,0,0,0,0,0.0176,0.0181,0.0175,0.0173,0.0153,0.0142,0.0138,0.0121,0.0113,0.0112,0.0076,0.0069,-0.0009,0.0004,-0.0003,0.0003,-0.0079,-0.0081,-0.0083,-0.0029,-0.0027,-0.0026,0,0,0,0,0,0,0.0196,0.0178,0.0171,0.0171,0.0161,0.0138,0.0136,0.0125,0.0096,0.0091,0.0058,0.0049,0.0021,-0.0004,0.0012,-0.0034,-0.0045,-0.0049,-0.0001,-0.0,0.0001,0.0053,0.0001,0,0,0,0,0,0.0201,0.0195,0.0181,0.0181,0.0178,0.0158,0.0151,0.014,0.0114,0.0103,0.0078,0.0041,0.0005,-0.0009,-0.0042,-0.0063,-0.0059,-0.0068,-0.0066,-0.0065,-0.003,-0.0035,-0.0029,-0.0092,-0.0091,-0.0091,0,0,0.0211,0.0199,0.0197,0.0185,0.0173,0.0179,0.0153,0.0147,0.0152,0.0099,0.0092,0.0046,-0.0002,-0.0029,-0.0043,-0.0046,-0.0049,-0.0068,-0.0065,-0.0031,-0.0036,-0.0029,-0.0023,-0.0093,-0.0093,-0.0092,0,0,0.0232,0.0216,0.0223,0.0217,0.0205,0.0193,0.0195,0.0175,0.0165,0.0145,0.0105,0.0065,0.0019,-0.0012,-0.0035,-0.0048,-0.0044,-0.0066,-0.0009,-0.0015,-0.0008,-0.0002,0.0007,0.0013,-0.0062,-0.0062,-0.0062,0,0.0248,0.0255,0.0225,0.0234,0.024,0.0205,0.0225,0.0208,0.0179,0.0183,0.015,0.0089,0.0032,0.0017,-0.0001,-0.0039,-0.0033,-0.0006,-0.0008,-0.0002,0.0003,0.0011,0.0017,-0.006,-0.006,-0.006,-0.006,0,0.0281,0.0287,0.0291,0.0292,0.029,0.0299,0.028,0.0276,0.0255,0.0244,0.0224,0.0147,0.0124,0.0078,0.0031,0.0036,0.0032,-0.0005,0.0002,0.0014,0.0019,0.0025,-0.0056,-0.0057,-0.0058,-0.0058,0,0,0.0327,0.0317,0.0322,0.0345,0.0325,0.034,0.0339,0.0348,0.0387,0.0325,0.0373,0.0262,0.024,0.0211,0.0147,0.0122,0.0131,0.0081,0.0079,0.0115,0.0144,0.0119,0.0122,0.0103,0.0104,0.0105,0.0133,0,0.0371,0.0407,0.0384,0.0433,0.0458,0.0431,0.0451,0.045,0.0443,0.0477,0.0397,0.0409,0.0287,0.0291,0.0241,0.0175,0.015,0.0129,0.0106,0.0106,0.0103,0.0129,0.0096,0.0117,0.0139,0.014,0.014,0,0.0421,0.0442,0.0491,0.0531,0.0543,0.057,0.0624,0.0638,0.0651,0.0651,0.0636,0.0595,0.0553,0.0451,0.0354,0.0353,0.026,0.0189,0.0188,0.016,0.0092,0.0105,0.0126,-0.0089,0.0149,0.0148,0.0147,0,0.0493,0.0526,0.0574,0.0584,0.0614,0.065,0.0678,0.0702,0.076,0.0791,0.0855,0.0775,0.0791,0.0651,0.0487,0.0437,0.0396,0.0306,0.0197,0.0194,0.0161,0.0154,-0.0002,0.0247,0.0247,0.0247,0.0247,0,0.0556,0.0602,0.0622,0.0656,0.0747,0.0745,0.0857,0.087,0.0947,0.1064,0.0972,0.1063,0.0847,0.0788,0.0587,0.0434,0.0474,0.0236,0.0207,0.0175,0.0169,-0.0024,-0.0133,0.0248,0.0248,0.0248,0.0247,0,0.0635,0.0629,0.0707,0.0761,0.078,0.0864,0.0978,0.1083,0.1129,0.1289,0.1321,0.1314,0.1241,0.1012,0.082,0.0605,0.0311,0.0357,0.0342,0.0309,-0.0027,-0.013,-0.026,-0.0343,0.0242,0.0242,0.0242,0,0.0682,0.0723,0.0797,0.0857,0.0891,0.1002,0.1095,0.1163,0.1293,0.146,0.1568,0.156,0.1584,0.1291,0.0905,0.0577,0.0346,0.032,0.0189,-0.0023,-0.016,-0.0239,-0.0306,0.0165,0.0164,0.0163,0.0163,0,0.0797,0.0816,0.088,0.0994,0.1099,0.1225,0.137,0.1488,0.1616,0.1757,0.1944,0.1985,0.1726,0.14,0.0943,0.0677,0.0164,0.0294,0.0075,-0.0218,-0.0312,-0.0413,0.013,0.0156,0.0157,0.0157,0.0158,0.0158,0.0896,0.0965,0.1043,0.1155,0.1284,0.1456,0.1578,0.175,0.1956,0.2171,0.2195,0.2264,0.178,0.1157,0.0818,0.011,0.0131,-0.0139,-0.0237,-0.029,-0.0406,0.0135,0.0119,0.0119,0.012,0.012,0.012,0,0.1016,0.1079,0.12,0.1342,0.1507,0.1541,0.1771,0.1904,0.2147,0.2314,0.2439,0.2188,0.1614,0.0995,0.0081,-0.0358,-0.0525,-0.0606,-0.0753,-0.079,-0.0311,-0.0355,-0.0475,-0.0475,-0.0475,-0.0475,-0.0475,-0.0474,0.1084,0.1203,0.125,0.1507,0.1619,0.1831,0.196,0.2146,0.2286,0.2446,0.2436,0.24,0.1886,0.038,-0.0663,-0.0902,-0.1173,-0.123,-0.1344,-0.1072,-0.1037,-0.1004,-0.1073,-0.1342,-0.1343,-0.1796,-0.1801,-0.1805]}],[{"header":{"parameterUnit":"m.s-1","parameterCategory":2,"la1":30.2991,"la2":30.254,"lo1":-89.0895,"lo2":-89.0444,"dy":0.0017,"dx":0.0017,"nx":28,"ny":28,"refTime":"2024-05-20T21:00:00:Z","depth":"2","parameterNumber":2,"parameterNumberName":"U-component_of_CURRENTS"},"data":[0,0,0,0,0,0,0,0,0,0,0,0,0,0,0,0,0,0,0,0,0,0,0,0,0,0,0,0,0,0,0,0,0,0,0,0,0,0,0,0,0,0,0,0,0,0,0,0,0,0,0,0,0,0,0,0,0,0,0.2621,0.2622,0,0.2735,0.2736,0.2738,0.2838,0.2839,0.284,0.2841,0.2967,0.2969,0.2972,0,0,0,0,0,0,0,0,0,0,0,0,0,0.2472,0.2474,0.2621,0.2622,0.2623,0.2734,0.2736,0.2738,0.2838,0.2839,0.2841,0.2842,0.2966,0.2969,0.2972,0,0,0,0,0,0,0,0,0,0,0,0,0,0.2558,0.2475,0.2621,0.2685,0.2692,0.2734,0.2736,0.2738,0.2838,0.2839,0.2841,0.2842,0.2965,0.2969,0.2972,0.2965,0,0,0.2983,0.2985,0,0,0,0,0,0,0,0,0.2553,0.2564,0.2675,0.2681,0.2688,0.2772,0.273,0.2814,0.2838,0.2785,0.2841,0.2843,0.29,0.2909,0.293,0.2971,0.2977,0.2984,0.2986,0.2988,0.2989,0,0,0,0,0,0,0,0.2547,0.2559,0.2668,0.2676,0.2684,0.2702,0.2716,0.2746,0.2835,0.2789,0.2797,0.2805,0.2905,0.2927,0.2934,0.2978,0.2984,0.2987,0.2989,0.2991,0.3091,0.3092,0,0,0,0,0,0,0.2528,0.2554,0.2664,0.2671,0.2621,0.2703,0.2719,0.2745,0.2834,0.2849,0.2804,0.281,0.292,0.293,0.2939,0.3017,0.2988,0.2991,0.2993,0.3091,0.3092,0.3092,0,0,0,0,0,0,0.2525,0.2538,0.266,0.2612,0.2629,0.2704,0.2733,0.2747,0.2768,0.2845,0.286,0.281,0.2921,0.2934,0.3024,0.3019,0.2993,0.2996,0.309,0.3091,0.3092,0.312,0,0,0,0,0,0,0.2521,0.2536,0.2561,0.2612,0.2631,0.2675,0.2731,0.2748,0.277,0.2779,0.2855,0.2869,0.2923,0.3018,0.3027,0.3024,0.2999,0.309,0.3091,0.3092,0.3118,0.3121,0.3124,0,0,0,0,0,0.2515,0.2561,0.2561,0.2575,0.2658,0.2674,0.2685,0.2744,0.2769,0.277,0.2872,0.2866,0.3028,0.3024,0.3034,0.303,0.3089,0.309,0.3092,0.3117,0.3121,0.3124,0,0,0,0,0,0,0.2515,0.2576,0.2578,0.264,0.2639,0.269,0.2752,0.273,0.2805,0.2847,0.29,0.2922,0.3006,0.3004,0.2997,0.3059,0.3044,0.3048,0.306,0.3064,0.3067,0.3056,0.3002,0,0,0,0,0,0.2517,0.2556,0.2586,0.2617,0.2666,0.269,0.2711,0.2715,0.2779,0.2813,0.2861,0.2931,0.3012,0.303,0.3102,0.3125,0.3153,0.3118,0.3121,0.3124,0.3121,0.3192,0.3202,0.3096,0.3096,0.3096,0,0,0.2521,0.2554,0.2578,0.2616,0.2676,0.2707,0.2713,0.275,0.275,0.2815,0.2892,0.2962,0.3031,0.3105,0.3129,0.3099,0.3169,0.3125,0.3127,0.3123,0.3195,0.3205,0.3215,0.3096,0.3096,0.3096,0,0,0.2532,0.2605,0.2644,0.2658,0.2701,0.2725,0.272,0.276,0.2789,0.2834,0.2912,0.298,0.3058,0.3116,0.3155,0.3196,0.321,0.3192,0.317,0.324,0.325,0.3259,0.3313,0.3327,0.3159,0.316,0.316,0,0.2529,0.2581,0.2643,0.2678,0.271,0.273,0.2755,0.2783,0.2811,0.2849,0.2867,0.3029,0.3069,0.3168,0.3187,0.3203,0.3245,0.3158,0.3246,0.3255,0.3264,0.3318,0.3332,0.3161,0.3161,0.3161,0.3161,0,0.256,0.2601,0.2653,0.2707,0.2732,0.2767,0.2808,0.2834,0.2869,0.2879,0.2986,0.3068,0.3152,0.3156,0.3191,0.3255,0.3269,0.3273,0.324,0.3277,0.333,0.3345,0.3163,0.3163,0.3162,0.3162,0,0,0.2545,0.2652,0.2659,0.2689,0.2755,0.2772,0.2834,0.2885,0.2935,0.2967,0.3044,0.3142,0.3171,0.3214,0.3247,0.3272,0.3361,0.3281,0.3284,0.334,0.3521,0.3429,0.3436,0.3392,0.3395,0.3397,0.3536,0,0.2548,0.2602,0.2652,0.2695,0.2761,0.2815,0.2868,0.2901,0.2962,0.3043,0.3116,0.3221,0.3196,0.3256,0.328,0.3374,0.34,0.3323,0.3471,0.3475,0.3394,0.345,0.3185,0.3278,0.355,0.3553,0.3555,0,0.2563,0.2595,0.2651,0.2727,0.2772,0.2791,0.2908,0.2937,0.3055,0.312,0.3209,0.3281,0.3365,0.3338,0.3467,0.3428,0.3466,0.3504,0.3511,0.3422,0.341,0.3284,0.3295,0.3579,0.3577,0.3576,0.3574,0,0.2522,0.2596,0.2641,0.2664,0.2758,0.2805,0.2859,0.2963,0.3026,0.3173,0.3249,0.3366,0.3467,0.3521,0.358,0.3549,0.3719,0.3693,0.3642,0.3637,0.3434,0.3406,0.3772,0.3772,0.3772,0.3771,0.3771,0,0.2513,0.254,0.2632,0.2649,0.2717,0.2791,0.2876,0.2954,0.3089,0.3186,0.328,0.3393,0.3522,0.3624,0.3637,0.3689,0.3772,0.3653,0.367,0.3435,0.3406,0.3677,0.3664,0.3777,0.3775,0.3774,0.3774,0,0.2466,0.252,0.2574,0.2671,0.2701,0.2751,0.2874,0.2944,0.307,0.3206,0.3267,0.3468,0.3598,0.3674,0.3814,0.3779,0.3825,0.3816,0.3522,0.35,0.368,0.3667,0.3781,0.3779,0.3777,0.3776,0.3775,0,0.2455,0.2476,0.257,0.2604,0.2652,0.2732,0.2797,0.2929,0.3005,0.3239,0.3309,0.3504,0.3593,0.3743,0.3752,0.3768,0.3821,0.3532,0.3397,0.3678,0.3684,0.3674,0.3663,0.3154,0.3148,0.3143,0.3139,0,0.2423,0.2461,0.2507,0.2572,0.2637,0.2698,0.2795,0.2842,0.3017,0.3116,0.3282,0.3374,0.3546,0.3475,0.3519,0.3488,0.3498,0.3428,0.3837,0.3178,0.3094,0.3097,0.3107,0.3094,0.3098,0.3101,0.3104,0.3106,0.2419,0.242,0.2479,0.2538,0.2603,0.2641,0.264,0.2749,0.2825,0.2923,0.3118,0.3147,0.3237,0.3155,0.3087,0.3061,0.328,0.3135,0.3148,0.3167,0.3054,0.297,0.2927,0.293,0.2933,0.2935,0.2938,0,0.2378,0.2382,0.2432,0.2481,0.2502,0.2569,0.2618,0.2575,0.259,0.2743,0.2805,0.2607,0.2579,0.266,0.2561,0.2578,0.2532,0.2472,0.2384,0.2433,0.2475,0.2323,0.2004,0.2001,0.1997,0.1994,0,0,0.2341,0.2345,0.2341,0.2347,0.2387,0.2352,0.2333,0.2295,0.2335,0.228,0.2289,0.2454,0.2597,0.2247,0.2225,0.2105,0.2247,0.2031,0.2791,0.2739,0.2777,0.2882,0.2707,0,0,0,0,0]},{"header":{"parameterUnit":"m.s-1","parameterCategory":2,"la1":30.2991,"la2":30.254,"lo1":-89.0895,"lo2":-89.0444,"dy":0.0017,"dx":0.0017,"nx":28,"ny":28,"refTime":"2024-05-20T21:00:00:Z","depth":"2","parameterNumber":3,"parameterNumberName":"V-component_of_CURRENTS"},"data":[0,0,0,0,0,0,0,0,0,0,0,0,0,0,0,0,0,0,0,0,0,0,0,0,0,0,0,0,0,0,0,0,0,0,0,0,0,0,0,0,0,0,0,0,0,0,0,0,0,0,0,0,0,0,0,0,0,0,-0.0107,-0.0108,0,-0.0168,-0.0169,-0.0169,-0.0214,-0.0214,-0.0214,-0.0214,-0.0289,-0.0291,-0.0293,0,0,0,0,0,0,0,0,0,0,0,0,0,-0.0099,-0.0099,-0.0107,-0.0108,-0.0108,-0.0167,-0.0169,-0.017,-0.0214,-0.0214,-0.0214,-0.0214,-0.0288,-0.0291,-0.0293,0,0,0,0,0,0,0,0,0,0,0,0,0,-0.0129,-0.0099,-0.0107,-0.0135,-0.0137,-0.0167,-0.0169,-0.017,-0.0214,-0.0214,-0.0214,-0.0214,-0.0288,-0.029,-0.0293,-0.031,0,0,-0.0302,-0.0303,0,0,0,0,0,0,0,0,-0.0127,-0.013,-0.013,-0.0133,-0.0136,-0.018,-0.0193,-0.0216,-0.0214,-0.0189,-0.0214,-0.0214,-0.0251,-0.0257,-0.0274,-0.0313,-0.0317,-0.0302,-0.0304,-0.0305,-0.0306,0,0,0,0,0,0,0,-0.0125,-0.0128,-0.0135,-0.0131,-0.0134,-0.0167,-0.0171,-0.0198,-0.0222,-0.0191,-0.0194,-0.0194,-0.0254,-0.0271,-0.0276,-0.0318,-0.0302,-0.0305,-0.0307,-0.0308,-0.0355,-0.0354,0,0,0,0,0,0,-0.0106,-0.0125,-0.0133,-0.0136,-0.0127,-0.0167,-0.0172,-0.0169,-0.0222,-0.0229,-0.0194,-0.0196,-0.0266,-0.0272,-0.0278,-0.0278,-0.0305,-0.0308,-0.031,-0.0355,-0.0355,-0.0354,0,0,0,0,0,0,-0.0106,-0.0106,-0.013,-0.013,-0.0134,-0.0166,-0.0163,-0.017,-0.0184,-0.0223,-0.0231,-0.02,-0.0266,-0.0274,-0.0284,-0.0282,-0.031,-0.0312,-0.0356,-0.0355,-0.0355,-0.0293,0,0,0,0,0,0,-0.0105,-0.0106,-0.01,-0.0128,-0.0134,-0.0139,-0.0163,-0.0171,-0.0182,-0.0186,-0.0231,-0.0238,-0.0267,-0.0279,-0.0287,-0.0287,-0.0314,-0.0357,-0.0356,-0.0355,-0.0295,-0.029,-0.0285,0,0,0,0,0,-0.0105,-0.0088,-0.0099,-0.01,-0.0124,-0.0138,-0.0145,-0.0171,-0.0182,-0.0185,-0.0205,-0.0236,-0.028,-0.0281,-0.029,-0.0291,-0.0357,-0.0356,-0.0355,-0.0298,-0.0291,-0.0285,0,0,0,0,0,0,-0.0076,-0.0092,-0.0104,-0.0092,-0.0111,-0.0144,-0.0144,-0.0165,-0.0186,-0.0183,-0.0226,-0.0235,-0.0244,-0.0273,-0.0274,-0.0301,-0.0325,-0.0326,-0.0279,-0.0273,-0.0268,-0.0238,-0.0317,0,0,0,0,0,-0.0067,-0.0063,-0.0085,-0.0076,-0.008,-0.0113,-0.0123,-0.0138,-0.0158,-0.0168,-0.0199,-0.0227,-0.0249,-0.0263,-0.0286,-0.03,-0.0322,-0.0307,-0.0302,-0.0298,-0.0279,-0.031,-0.0305,-0.0351,-0.0351,-0.0351,0,0,-0.0054,-0.0061,-0.0059,-0.0071,-0.0087,-0.0082,-0.012,-0.0122,-0.0118,-0.0172,-0.0173,-0.0208,-0.0247,-0.0258,-0.0267,-0.0281,-0.0298,-0.0296,-0.0292,-0.0275,-0.0308,-0.0304,-0.03,-0.035,-0.035,-0.035,0,0,-0.0022,-0.0029,-0.0017,-0.0025,-0.0037,-0.0054,-0.0051,-0.0079,-0.009,-0.0095,-0.0132,-0.0156,-0.0194,-0.0221,-0.024,-0.0221,-0.0267,-0.0238,-0.0193,-0.0223,-0.0219,-0.0216,-0.0241,-0.024,-0.024,-0.0239,-0.0239,0,-0.0007,0.0011,-0.0015,-0.0002,0.0002,-0.0036,-0.0017,-0.0032,-0.006,-0.0063,-0.0081,-0.0132,-0.0172,-0.0186,-0.0183,-0.0209,-0.0231,-0.0213,-0.0216,-0.0213,-0.0211,-0.0237,-0.0237,-0.0236,-0.0237,-0.0237,-0.0237,0,0.0036,0.0049,0.006,0.0065,0.0062,0.0075,0.0056,0.0053,0.0035,0.0012,-0.0002,-0.0053,-0.0082,-0.0109,-0.0141,-0.0151,-0.0173,-0.0203,-0.0228,-0.0203,-0.0232,-0.0233,-0.0232,-0.0233,-0.0234,-0.0235,0,0,0.0074,0.0087,0.0092,0.0108,0.0102,0.0109,0.0122,0.0119,0.0135,0.0096,0.0111,0.0052,0.0017,-0.0005,-0.0058,-0.009,-0.0108,-0.0136,-0.0139,-0.0154,-0.0169,-0.0212,-0.0219,-0.0142,-0.0141,-0.0141,-0.0196,0,0.0115,0.016,0.0152,0.0195,0.0218,0.0197,0.0218,0.021,0.0191,0.0195,0.0139,0.0133,0.0058,0.005,0.0004,-0.0068,-0.0108,-0.0089,-0.0196,-0.0198,-0.0236,-0.0221,-0.0181,-0.0228,-0.0197,-0.0198,-0.0198,0,0.0162,0.0187,0.0238,0.0271,0.0281,0.0305,0.0332,0.0343,0.033,0.032,0.029,0.0244,0.0203,0.0137,0.0024,0.004,-0.0056,-0.0122,-0.0127,-0.0185,-0.0244,-0.025,-0.0233,-0.0201,-0.0201,-0.0201,-0.02,0,0.0207,0.0248,0.0295,0.0306,0.0337,0.0366,0.0385,0.0385,0.0416,0.0404,0.042,0.035,0.0349,0.0218,0.0068,0.005,-0.0058,-0.0103,-0.0235,-0.0239,-0.0233,-0.0238,-0.0189,-0.0189,-0.0189,-0.0189,-0.0188,0,0.0255,0.0292,0.0328,0.0356,0.0427,0.0429,0.0499,0.05,0.0535,0.0593,0.0493,0.0523,0.0372,0.0282,0.0114,-0.0056,-0.0028,-0.0214,-0.0253,-0.0212,-0.0214,-0.0213,-0.0215,-0.0191,-0.019,-0.019,-0.0189,0,0.0293,0.0311,0.0373,0.0428,0.045,0.0506,0.0589,0.0644,0.0652,0.0728,0.0739,0.0684,0.0567,0.0374,0.019,0.003,-0.015,-0.0228,-0.0166,-0.0198,-0.0322,-0.0321,-0.0365,-0.0366,-0.0368,-0.0369,-0.0371,0,0.0309,0.0346,0.043,0.0481,0.0512,0.0594,0.0662,0.0706,0.0776,0.0828,0.088,0.0803,0.0737,0.0431,0.0162,-0.0131,-0.0173,-0.0285,-0.0322,-0.0305,-0.0339,-0.0335,-0.0331,-0.0289,-0.029,-0.029,-0.029,0,0.0344,0.0382,0.0443,0.0545,0.0628,0.0727,0.0829,0.09,0.0973,0.1028,0.1088,0.1038,0.0764,0.0497,0.0103,-0.0094,-0.0237,-0.0302,-0.0287,-0.0258,-0.0241,-0.0272,-0.0269,-0.0293,-0.0293,-0.0292,-0.0292,-0.0292,0.0373,0.0428,0.0512,0.0614,0.0713,0.084,0.0918,0.1041,0.1155,0.1241,0.1224,0.1159,0.0868,0.0362,0.0037,-0.0275,-0.0277,-0.0387,-0.0382,-0.0379,-0.0367,-0.0355,-0.0426,-0.0426,-0.0426,-0.0427,-0.0427,0,0.04,0.0468,0.0568,0.0688,0.0794,0.0853,0.1013,0.1095,0.1225,0.1332,0.1358,0.1075,0.0755,0.0416,-0.0049,-0.0356,-0.0363,-0.0442,-0.0375,-0.0371,-0.0367,-0.0353,-0.0409,-0.0409,-0.041,-0.0411,0,0,0.0413,0.0502,0.0562,0.0725,0.0815,0.0966,0.1055,0.1184,0.1287,0.1357,0.136,0.1278,0.087,0.0537,0.0131,-0.0126,-0.0177,-0.0181,-0.0164,-0.0032,-0.0024,-0.0306,-0.0277,0,0,0,0,0]}],[{"header":{"parameterUnit":"m.s-1","parameterCategory":2,"la1":30.2991,"la2":30.254,"lo1":-89.0895,"lo2":-89.0444,"dy":0.0017,"dx":0.0017,"nx":28,"ny":28,"refTime":"2024-05-20T21:00:00:Z","depth":"4","parameterNumber":2,"parameterNumberName":"U-component_of_CURRENTS"},"data":[0,0,0,0,0,0,0,0,0,0,0,0,0,0,0,0,0,0,0,0,0,0,0,0,0,0,0,0,0,0,0,0,0,0,0,0,0,0,0,0,0,0,0,0,0,0,0,0,0,0,0,0,0,0,0,0,0,0,0.1369,0.1369,0,0.1377,0.1376,0.1376,0.141,0.1411,0.1412,0.1413,0.1468,0.1468,0.1469,0,0,0,0,0,0,0,0,0,0,0,0,0,0.134,0.1341,0.1369,0.1369,0.137,0.1377,0.1376,0.1376,0.141,0.1411,0.1412,0.1414,0.1468,0.1468,0.1469,0,0,0,0,0,0,0,0,0,0,0,0,0,0.1347,0.1341,0.1368,0.139,0.1392,0.1377,0.1376,0.1376,0.1409,0.1411,0.1413,0.1414,0.1468,0.1468,0.1469,0.1438,0,0,0.1471,0.1471,0,0,0,0,0,0,0,0,0.1347,0.1348,0.1386,0.1389,0.1391,0.1398,0.1387,0.14,0.1409,0.1398,0.1413,0.1415,0.145,0.1452,0.1443,0.144,0.1443,0.1471,0.1471,0.1471,0.1471,0,0,0,0,0,0,0,0.1346,0.1347,0.1368,0.1387,0.139,0.1385,0.1388,0.1389,0.1412,0.14,0.1403,0.141,0.1451,0.1443,0.1445,0.1443,0.1471,0.1471,0.1471,0.1472,0.1549,0.1551,0,0,0,0,0,0,0.1354,0.1347,0.1367,0.1368,0.1377,0.1385,0.1388,0.139,0.1411,0.1417,0.1408,0.1411,0.1441,0.1444,0.1447,0.1534,0.1471,0.1472,0.1472,0.1548,0.155,0.1552,0,0,0,0,0,0,0.1353,0.1355,0.1367,0.1361,0.1363,0.1384,0.1386,0.139,0.1425,0.1418,0.1424,0.1446,0.1442,0.1447,0.1472,0.1532,0.1472,0.1473,0.1546,0.1548,0.1551,0.1629,0,0,0,0,0,0,0.1352,0.1355,0.1367,0.1362,0.1364,0.1392,0.1385,0.1389,0.1426,0.1431,0.1452,0.1456,0.1444,0.1471,0.1472,0.1532,0.1473,0.1544,0.1547,0.155,0.1625,0.1634,0.1643,0,0,0,0,0,0.1351,0.1361,0.1368,0.1371,0.1378,0.1394,0.1395,0.1412,0.1427,0.1449,0.1452,0.1458,0.1494,0.1471,0.1473,0.1535,0.1542,0.1546,0.155,0.162,0.1632,0.1642,0,0,0,0,0,0,0.1359,0.1365,0.1373,0.1386,0.1406,0.1402,0.1417,0.1435,0.1453,0.1467,0.146,0.1464,0.1509,0.1506,0.1482,0.1567,0.1527,0.1531,0.158,0.1591,0.16,0.1632,0.1473,0,0,0,0,0,0.1364,0.1377,0.1385,0.1404,0.1409,0.1421,0.1434,0.1455,0.1465,0.1477,0.1491,0.1507,0.1517,0.1543,0.1543,0.1584,0.1599,0.1631,0.164,0.1648,0.1675,0.1723,0.174,0.1564,0.1564,0.1564,0,0,0.1368,0.1381,0.1385,0.1408,0.1415,0.1435,0.1433,0.1469,0.1505,0.1479,0.1531,0.1531,0.153,0.157,0.1595,0.1586,0.1707,0.1653,0.1659,0.1683,0.1729,0.1747,0.1762,0.1567,0.1567,0.1566,0,0,0.1388,0.1397,0.1414,0.1434,0.1469,0.1472,0.1495,0.1518,0.1549,0.1592,0.158,0.1617,0.1642,0.1654,0.1661,0.1723,0.1739,0.1739,0.1829,0.1875,0.1891,0.1904,0.1951,0.1968,0.176,0.1761,0.1761,0,0.1396,0.1419,0.1425,0.1454,0.1476,0.1495,0.1527,0.1551,0.1591,0.1623,0.1629,0.1684,0.1684,0.1735,0.1765,0.1747,0.1778,0.1785,0.1888,0.1902,0.1915,0.1959,0.1977,0.1765,0.1764,0.1764,0.1763,0,0.1423,0.1454,0.1467,0.1503,0.1532,0.1563,0.1595,0.1642,0.1683,0.1712,0.1788,0.1789,0.1833,0.1845,0.1829,0.1925,0.1919,0.188,0.1862,0.1937,0.1979,0.1997,0.1771,0.1769,0.1768,0.1767,0,0,0.1405,0.1468,0.1481,0.151,0.1564,0.1587,0.1653,0.171,0.1768,0.1827,0.1907,0.1943,0.1969,0.198,0.1976,0.2034,0.2144,0.2019,0.2019,0.2069,0.2267,0.2104,0.2107,0.213,0.2133,0.2136,0.2263,0,0.1425,0.1484,0.152,0.1583,0.1604,0.1656,0.1711,0.1779,0.184,0.1918,0.1966,0.2029,0.2012,0.2055,0.2109,0.2132,0.2194,0.2115,0.2185,0.2188,0.2036,0.2122,0.2147,0.2276,0.228,0.2283,0.2285,0,0.1435,0.1477,0.1539,0.1621,0.1637,0.1689,0.179,0.1848,0.1954,0.2013,0.2101,0.2132,0.2236,0.22,0.2317,0.2275,0.2294,0.2307,0.2311,0.2147,0.2056,0.2184,0.2315,0.2313,0.2311,0.2309,0.2307,0,0.1403,0.149,0.1542,0.1568,0.1659,0.1721,0.1781,0.1886,0.1951,0.2089,0.216,0.2262,0.2335,0.2391,0.2427,0.2397,0.2539,0.2482,0.2354,0.2343,0.2416,0.24,0.2567,0.2567,0.2566,0.2566,0.2566,0,0.1387,0.1434,0.154,0.1566,0.1645,0.1723,0.1823,0.1904,0.203,0.2104,0.2212,0.2284,0.2394,0.247,0.2486,0.2479,0.2587,0.2398,0.2371,0.2445,0.2431,0.2428,0.2411,0.2571,0.257,0.2569,0.2568,0,0.1333,0.14,0.1465,0.1584,0.1629,0.169,0.1836,0.1898,0.2038,0.2147,0.2202,0.2349,0.2447,0.2521,0.2614,0.2536,0.2551,0.2512,0.2619,0.259,0.2316,0.2301,0.24,0.2396,0.2392,0.2389,0.2386,0,0.1298,0.1326,0.1465,0.1505,0.1566,0.1671,0.1733,0.1886,0.1955,0.2152,0.219,0.2347,0.2419,0.2437,0.2516,0.2549,0.25,0.2497,0.2386,0.2339,0.2303,0.2294,0.2285,0.238,0.2379,0.2378,0.2377,0,0.1221,0.1289,0.1345,0.1433,0.1511,0.1588,0.17,0.1743,0.1908,0.206,0.2134,0.2186,0.2285,0.2343,0.2386,0.2391,0.2497,0.2456,0.2463,0.2359,0.2315,0.2281,0.2277,0.2364,0.2366,0.2367,0.2368,0,0.1162,0.1188,0.1267,0.1342,0.1421,0.1467,0.1548,0.1631,0.172,0.1943,0.1962,0.2115,0.226,0.2262,0.2299,0.2301,0.2256,0.2168,0.2189,0.2205,0.2076,0.1987,0.1939,0,0,0,0,0,0.1092,0.1114,0.1163,0.1231,0.1301,0.1362,0.1496,0.1581,0.1755,0.176,0.1858,0.1935,0.1997,0.2079,0.2041,0.2205,0.226,0.215,0.2166,0.2289,0.2305,0.2167,0,0,0,0,0,0,0.1043,0.1083,0.1122,0.1111,0.1143,0.1212,0.1298,0.1423,0.1442,0.1626,0.1676,0.1814,0.1909,0.2001,0.2003,0.2027,0.1996,0.2254,0.2248,0.2281,0.2295,0.2307,0.2171,0,0,0,0,0]},{"header":{"parameterUnit":"m.s-1","parameterCategory":2,"la1":30.2991,"la2":30.254,"lo1":-89.0895,"lo2":-89.0444,"dy":0.0017,"dx":0.0017,"nx":28,"ny":28,"refTime":"2024-05-20T21:00:00:Z","depth":"4","parameterNumber":3,"parameterNumberName":"V-component_of_CURRENTS"},"data":[0,0,0,0,0,0,0,0,0,0,0,0,0,0,0,0,0,0,0,0,0,0,0,0,0,0,0,0,0,0,0,0,0,0,0,0,0,0,0,0,0,0,0,0,0,0,0,0,0,0,0,0,0,0,0,0,0,0,-0.0055,-0.0055,0,-0.0087,-0.0087,-0.0087,-0.0125,-0.0125,-0.0126,-0.0126,-0.0222,-0.0224,-0.0226,0,0,0,0,0,0,0,0,0,0,0,0,0,-0.0049,-0.0049,-0.0055,-0.0055,-0.0055,-0.0087,-0.0087,-0.0088,-0.0125,-0.0125,-0.0126,-0.0127,-0.0222,-0.0224,-0.0226,0,0,0,0,0,0,0,0,0,0,0,0,0,-0.0064,-0.0049,-0.0055,-0.0077,-0.008,-0.0087,-0.0087,-0.0088,-0.0125,-0.0125,-0.0126,-0.0127,-0.0221,-0.0224,-0.0227,-0.0229,0,0,-0.0236,-0.0238,0,0,0,0,0,0,0,0,-0.0063,-0.0064,-0.0074,-0.0076,-0.0079,-0.0102,-0.012,-0.0138,-0.0124,-0.0108,-0.0126,-0.0127,-0.0187,-0.0193,-0.0197,-0.0234,-0.0238,-0.0236,-0.0238,-0.024,-0.0241,0,0,0,0,0,0,0,-0.0062,-0.0063,-0.0068,-0.0074,-0.0077,-0.0094,-0.0097,-0.0124,-0.0144,-0.0109,-0.0112,-0.0115,-0.0189,-0.0194,-0.02,-0.0239,-0.0236,-0.0239,-0.0241,-0.0242,-0.0284,-0.0284,0,0,0,0,0,0,-0.0055,-0.0062,-0.0067,-0.0068,-0.0072,-0.0094,-0.0097,-0.0094,-0.0142,-0.015,-0.0114,-0.0117,-0.0188,-0.0196,-0.0203,-0.0209,-0.024,-0.0243,-0.0244,-0.0285,-0.0284,-0.0284,0,0,0,0,0,0,-0.0055,-0.0055,-0.0065,-0.0066,-0.0069,-0.0093,-0.009,-0.0094,-0.0103,-0.0145,-0.0154,-0.0119,-0.0189,-0.0199,-0.0213,-0.0213,-0.0244,-0.0247,-0.0286,-0.0285,-0.0284,-0.0222,0,0,0,0,0,0,-0.0054,-0.0054,-0.0051,-0.0065,-0.0068,-0.0065,-0.0089,-0.0094,-0.0103,-0.0107,-0.0152,-0.0161,-0.019,-0.0208,-0.0216,-0.0218,-0.0249,-0.0287,-0.0286,-0.0284,-0.0225,-0.0218,-0.0213,0,0,0,0,0,-0.0054,-0.0042,-0.0051,-0.0052,-0.0063,-0.0064,-0.0067,-0.0088,-0.0102,-0.01,-0.0123,-0.016,-0.0206,-0.021,-0.0219,-0.0222,-0.0288,-0.0286,-0.0284,-0.0227,-0.022,-0.0213,0,0,0,0,0,0,-0.0037,-0.0045,-0.0055,-0.0046,-0.0054,-0.0071,-0.0069,-0.0085,-0.01,-0.0105,-0.0147,-0.0157,-0.0172,-0.02,-0.0203,-0.0229,-0.0255,-0.0255,-0.0208,-0.0202,-0.0196,-0.0194,-0.0252,0,0,0,0,0,-0.0031,-0.0025,-0.0037,-0.003,-0.0031,-0.005,-0.0055,-0.0068,-0.0083,-0.0091,-0.012,-0.015,-0.0172,-0.0188,-0.0212,-0.0223,-0.0261,-0.0232,-0.0227,-0.0222,-0.0225,-0.0266,-0.0265,-0.0278,-0.0278,-0.0278,0,0,-0.0024,-0.0026,-0.0024,-0.0026,-0.0033,-0.0028,-0.0055,-0.0056,-0.0054,-0.0099,-0.0105,-0.0132,-0.0169,-0.0179,-0.019,-0.0204,-0.0237,-0.022,-0.0215,-0.0222,-0.0264,-0.0263,-0.0262,-0.0277,-0.0277,-0.0278,0,0,-0.0001,-0.0005,0.0007,0.0006,-0.0001,-0.0011,-0.001,-0.0024,-0.0034,-0.004,-0.0071,-0.0091,-0.0126,-0.0149,-0.0167,-0.0145,-0.0204,-0.0156,-0.013,-0.0169,-0.0169,-0.0169,-0.0212,-0.0216,-0.0155,-0.0155,-0.0155,0,0.0007,0.002,0.001,0.0022,0.0025,0.0,0.0014,0.0005,-0.0014,-0.002,-0.0035,-0.0082,-0.0113,-0.013,-0.012,-0.0135,-0.0167,-0.0152,-0.0162,-0.0163,-0.0164,-0.0209,-0.0215,-0.0152,-0.0152,-0.0153,-0.0153,0,0.0036,0.0046,0.0056,0.0063,0.0066,0.0075,0.0064,0.0061,0.0045,0.0027,0.0007,-0.0029,-0.0059,-0.0071,-0.009,-0.0111,-0.0135,-0.0149,-0.018,-0.0159,-0.0207,-0.0215,-0.0147,-0.0149,-0.015,-0.015,0,0,0.0055,0.0073,0.0076,0.0088,0.0089,0.0096,0.0105,0.0102,0.0103,0.0074,0.0066,0.0032,0.0002,-0.0018,-0.005,-0.0083,-0.0116,-0.0115,-0.0119,-0.0159,-0.0208,-0.02,-0.0208,-0.0133,-0.0134,-0.0135,-0.0238,0,0.008,0.0114,0.0114,0.0144,0.0161,0.015,0.0162,0.0154,0.0137,0.0123,0.0077,0.0058,0.0026,0.0012,-0.0026,-0.0092,-0.0133,-0.0088,-0.0222,-0.0226,-0.0222,-0.0215,-0.0137,-0.0243,-0.0245,-0.0246,-0.0247,0,0.0105,0.0127,0.0163,0.0189,0.0196,0.0211,0.0224,0.023,0.0204,0.0189,0.0155,0.0112,0.0064,0.0032,-0.0079,-0.0049,-0.0124,-0.0181,-0.0186,-0.0208,-0.0231,-0.027,-0.0261,-0.026,-0.0259,-0.0258,-0.0257,0,0.0125,0.016,0.0192,0.0201,0.0226,0.0243,0.0256,0.025,0.0264,0.0229,0.0223,0.0152,0.0117,0.0021,-0.0093,-0.0089,-0.0226,-0.0237,-0.0306,-0.0307,-0.0313,-0.0312,-0.0326,-0.0326,-0.0325,-0.0325,-0.0325,0,0.0148,0.0172,0.0207,0.0226,0.0267,0.0276,0.0313,0.031,0.0315,0.033,0.026,0.0242,0.0112,0.0019,-0.0088,-0.0216,-0.0226,-0.0305,-0.0331,-0.0283,-0.0277,-0.0318,-0.0316,-0.0329,-0.0328,-0.0327,-0.0327,0,0.0154,0.0177,0.0218,0.026,0.0277,0.0308,0.0362,0.0386,0.0384,0.0398,0.0391,0.0304,0.0186,0.0047,-0.0119,-0.0202,-0.0329,-0.0377,-0.0319,-0.034,-0.0389,-0.0382,-0.0461,-0.0461,-0.0462,-0.0462,-0.0462,0,0.0156,0.0178,0.0242,0.0273,0.0295,0.0348,0.0384,0.0415,0.0446,0.0437,0.0441,0.0336,0.0261,0.004,-0.0119,-0.0327,-0.0355,-0.0426,-0.0403,-0.0384,-0.0402,-0.0395,-0.0387,-0.0463,-0.0463,-0.0463,-0.0464,0,0.0155,0.0181,0.0216,0.0288,0.0339,0.0399,0.0457,0.049,0.0524,0.0523,0.0498,0.0381,0.0238,0.0056,-0.011,-0.026,-0.0378,-0.0432,-0.0432,-0.0411,-0.0388,-0.0404,-0.0396,-0.0465,-0.0465,-0.0465,-0.0465,0,0.0153,0.0178,0.0232,0.0299,0.0362,0.0432,0.0466,0.0514,0.0551,0.056,0.0544,0.0398,0.0315,0.0088,-0.0066,-0.021,-0.0246,-0.0286,-0.0295,-0.0295,-0.0214,-0.0159,-0.0189,0,0,0,0,0,0.0153,0.0187,0.0239,0.032,0.0385,0.0434,0.0504,0.0536,0.0576,0.0579,0.0577,0.0455,0.0236,0.0125,-0.0015,-0.0104,-0.0298,-0.0276,-0.0354,-0.0474,-0.0472,-0.0404,0,0,0,0,0,0,0.0153,0.0197,0.0235,0.0326,0.0387,0.0468,0.0519,0.0548,0.0558,0.0573,0.046,0.0425,0.0203,0.0327,-0.0014,-0.0062,-0.013,-0.0377,-0.038,-0.0475,-0.0473,-0.0472,-0.0401,0,0,0,0,0]}]]